www.pogodaiklimat.ru

Погода и климат >> Архив погоды >> Туркменистан >> Сарагт


АРХИВ ПОГОДЫ в Сарагте

Время (UTC), дата Ветер
(напр.,м/с)
 
Видим.   Явления Облачность Т
(С)
Тd
(С)
f
(%)
Тe
(С)
Тes
(С)
Комфортность P
(гПа)
Po
(гПа)
Тmin
(С)
Tmax
(С)
R
(мм)
R24
(мм)
S
(см)
15 16.07 СЗ 3 20 км ясно +41.8 +8.1 13 +40 +40 очень
жарко
997.3 968.1 +44.5
18 16.07 С 3 20 км ясно +34.1 +10.9 24 +33 +33 жарко 998.9 969.0 +44.5
21 16.07 С 1 20 км ясно +29.3 +13.1 37 +31 +31 жарко 999.6 969.2
00 17.07 штиль 0 20 км ясно +27.3 +12.1 39 +29 +29 жарко 1000.4 969.7
03 17.07 штиль 0 20 км ясно +29.0 +11.8 35 +30 +35 жарко 1000.7 970.2 +27.2
06 17.07 С 1 20 км ясно +40.6 +12.2 19 +40 +60 опасность
солнечного
удара
1001.4 972.0 +27.2
09 17.07 С 2 20 км ясно +44.0 +7.7 12 +42 +61 опасность
перегрева
1000.6 971.5
12 17.07 С 3 20 км ясно +44.2 +5.1 10 +41 +48 опасность
перегрева
999.3 970.2
15 17.07 С 2 20 км ясно +41.2 +6.4 12 +39 +39 очень
жарко
999.9 970.5 +45.0
18 17.07 С 1 20 км ясно +33.8 +9.9 23 +33 +33 жарко 1001.3 971.2 +45.0
21 17.07 штиль 0 20 км ясно +29.7 +10.4 30 +30 +30 жарко 1002.0 971.5
00 18.07 СЗ 1 20 км ясно +27.1 +8.9 32 +27 +27 жарко 1001.8 973.0
03 18.07 СЗ 3 20 км ясно +28.9 +7.4 26 +28 +31 жарко 1003.9 973.2 +27.0
06 18.07 СЗ 4 20 км ясно +36.7 +16.4 30 +39 +50 очень
душно
1001.1 971.4 +27.0
09 18.07 С 2 20 км ясно +42.4 +12.8 18 +42 +62 опасность
перегрева
999.6 970.0
12 18.07 С 2 20 км ясно +45.4 +13.5 16 +46 +53 опасность
перегрева
997.9 968.8
15 18.07 С 2 20 км ясно +41.6 +10.7 16 +40 +40 очень
жарко
998.9 969.6 +46.5
18 18.07 СЗ 2 20 км ясно +34.9 +12.2 25 +35 +35 очень
жарко
1000.4 970.5 +46.5
21 18.07 СЗ 2 20 км ясно +29.9 +13.1 36 +31 +31 жарко 1001.1 970.7
00 19.07 З 3 20 км ясно +27.3 +11.7 38 +28 +28 жарко 1001.7 971.0
03 19.07 З 2 20 км ясно +28.3 +10.7 33 +29 +33 жарко 1002.8 972.2 +27.2
06 19.07 СЗ 3 20 км ясно +39.2 +7.0 14 +37 +51 опасность
солнечного
удара
1001.7 972.2 +27.2
09 19.07 С 5 20 км ясно +44.0 +9.9 13 +42 +52 опасность
перегрева
1000.5 971.4
12 19.07 С 6 20 км ясно +45.1 +9.4 12 +43 +46 опасность
перегрева
999.2 970.1
15 19.07 С 3 20 км ясно +42.4 +9.7 14 +41 +41 опасность
перегрева
999.5 970.3 +46.2
18 19.07 С 2 20 км ясно +34.5 +11.9 25 +34 +34 очень
жарко
1002.0 972.0 +46.2
21 19.07 СЗ 3 20 км ясно +29.3 +12.3 35 +30 +30 жарко 1002.8 972.3
00 20.07 С 1 20 км ясно +27.9 +10.9 35 +29 +29 жарко 1004.1 973.3
03 20.07 С 1 20 км ясно +30.0 +12.3 34 +31 +35 жарко 1004.7 974.2 +27.8
06 20.07 СЗ 6 20 км ясно +37.5 +15.7 28 +39 +46 очень
душно
1008.0 978.2 +27.8
09 20.07 СЗ 9 10 км ясно +41.2 +13.3 19 +41 +43 опасность
перегрева
1005.5 976.0
12 20.07 СЗ 9 10 км ясно +42.7 +13.3 18 +43 +43 опасность
перегрева
1004.1 974.9
15 20.07 СЗ 6 20 км ясно +40.7 +14.2 21 +41 +41 опасность
перегрева
1003.8 974.4 +43.4
18 20.07 С 4 20 км ясно +34.9 +14.6 30 +36 +36 душно 1005.0 975.0 +43.4
21 20.07 С 6 20 км ясно +33.8 +14.8 32 +35 +35 очень
жарко
1005.2 975.1
00 21.07 СЗ 9 10 км ясно +32.6 +14.4 33 +34 +34 очень
жарко
1005.4 975.2
03 21.07 СЗ 5 20 км ясно +32.3 +14.1 33 +34 +36 душно 1007.3 976.9 +32.2
06 21.07 СЗ 7 20 км ясно +35.9 +20.7 41 +42 +47 опасность
перегрева
1007.3 977.4 +32.2
09 21.07 С 7 20 км ясно +38.9 +17.4 29 +42 +47 опасность
перегрева
1006.8 977.1
12 21.07 СЗ 7 20 км ясно +39.4 +12.5 20 +39 +41 очень
жарко
1005.8 975.9
15 21.07 СЗ 4 20 км ясно +38.2 +11.9 21 +38 +38 очень
жарко
1003.7 974.0 +40.3
18 21.07 С 4 20 км ясно +35.5 +10.2 21 +34 +34 очень
жарко
1004.4 974.4 +40.3
21 21.07 СЗ 3 20 км ясно +33.9 +10.0 23 +33 +33 жарко 1005.3 975.1
00 22.07 СЗ 3 20 км ясно +30.8 +7.7 24 +30 +30 жарко 1005.8 975.3
03 22.07 СЗ 1 20 км ясно +30.8 +7.7 24 +30 +34 жарко 1008.5 977.9 +30.7
06 22.07 СЗ 2 20 км ясно +36.3 +7.4 17 +34 +51 опасность
солнечного
удара
1007.4 977.4 +30.7
09 22.07 С 2 20 км ясно +39.0 +7.3 15 +37 +56 опасность
солнечного
удара
1005.5 975.7
12 22.07 С 3 20 км ясно +39.9 +7.6 14 +38 +43 очень
жарко
1003.7 974.1
15 22.07 С 3 20 км ясно +37.1 +10.3 20 +36 +36 очень
жарко
1003.7 973.9 +41.3
18 22.07 С 2 20 км ясно +29.3 +6.4 24 +28 +28 жарко 1005.6 975.0 +41.3
21 22.07 С 2 20 км ясно +27.2 +8.0 30 +27 +27 жарко 1006.2 975.7
00 23.07 СЗ 3 20 км ясно +25.5 +5.3 27 +25 +25 комфорт 1004.5 973.5
03 23.07 СЗ 2 20 км ясно +26.0 +4.0 24 +25 +29 комфорт 1004.4 973.4 +25.4
06 23.07 СЗ 3 20 км ясно +31.0 +4.5 19 +29 +43 жарко 1004.1 973.6 +25.4
09 23.07 С 2 20 км ясно +38.9 +9.5 17 +37 +56 опасность
солнечного
удара
1002.2 972.5
12 23.07 СЗ 2 20 км ясно +40.5 +11.0 17 +39 +46 очень
жарко
1000.8 971.4

 

Местоположение метеостанции Сарагт (Ахалский велаят, Туркменистан): широта 36.53 долгота 61.22 высота над уровнем моря 275 м.

В архиве по умолчанию представлена погода в Сарагте за последнюю неделю. Архивные данные за месяц целиком и за предыдущие месяцы, начиная с января 2011 года, Вы можете получить, выбрав интересующий диапазон дат из раскрывающегося списка и нажав кнопку "Ввод!".


*Определитесь, кто Вы:
робот инопланетянин человек

Внимание! Время в таблицах - всемирное. Для получения местного времени необходимо прибавить поправку, которая равна 5 ч.

Смотрите также архив погоды в соседних городах и на ближайших метеорологических станциях:

Погода в Серахсе (Иран) (4 км)
Погода в Теджене (Ахалский велаят, Туркменистан) (113 км)
Погода в Елетене (Марыйский велаят, Туркменистан) (137 км)
Погода в Мешхеде (Иран) (145 км)
Погода в Байрамалы (Ахалский велаят, Туркменистан) (146 км)
Погода в Тагтабазаре (Марыйский велаят, Туркменистан) (166 км)
Погода в Каке (Ахалский велаят, Туркменистан) (168 км)
Погода в Серхетабаде (Марыйский велаят, Туркменистан) (172 км)
Погода в Багтыярлыке (Марыйский велаят, Туркменистан) (222 км)
Погода в Торбете-Хейдерие (Иран) (228 км)

Пояснения к столбцам:

Ветер - указаны скорость ветра в м/с - средняя за 10 мин, порывы в срок и между сроками (в фигурных скобках) и направление, откуда дует ветер: С - северный, СВ - северо-восточный, В - восточный, ЮВ - юго-восточный, Ю - южный, ЮЗ - юго-западный, З - западный, СЗ - северо-западный.
Видимость - горизонтальная дальность видимости в метрах или километрах. При видимости от 1 до 10 км при отсутствии осадков обычно наблюдается дымка, при ухудшении видимости до 1 км и менее - туман. В сухую погоду видимость может ухудшаться дымом, пылью или мглою.
Явления - указаны атмосферные явления, наблюдавшиеся в срок или в последний час перед сроком; фигурными скобками обозначены явления, наблюдавшиеся между сроками (за 1-3 часа до срока); квадратными скобками обозначены град или гололедные отложения с указанием их диаметра в мм.
Облачность - указаны через наклонную черту общая и нижняя облачность в баллах и высота нижней границы облаков в метрах; квадратными скобками обозначены формы облаков: Ci - перистые, Cs - перисто-слоистые, Cc - перисто-кучевые, Ac - высококучевые, As - высокослоистые, Sc - слоисто-кучевые, Ns - слоисто-дождевые, Cu - кучевые, Cb - кучево-дождевые. Подробнее классификацию облаков см. в Атласе облаков (PDF).
T - Температура воздуха - температура, измеренная на высоте 2 м над землей.
Td - Температура точки росы - температура, при понижении до которой содержащийся в воздухе водяной пар достигнет насыщения.
f - Относительная влажность воздуха - влажноcть воздуха, измеренная на высоте 2 м над землей.
Te - Эффективная температура - температура, которую ощущает одетый по сезону человек в тени. Характеристика душности погоды. При расчете учитывается влияние влажности воздуха и скорости ветра на теплоощущения человека.
Tes - Эффективная температура на солнце - температура, которую ощущает человек, с поправкой на солнечный нагрев. Характеристика знойности погоды. Зависит от высоты солнца над горизонтом, облачности и скорости ветра. Ночью, в пасмурную погоду, а также при ветре 12 м/с и более поправка равна нулю.
P - Атмосферное давление - приведенное к уровню моря атмосферное давление.
Po - Атмосферное давление - измеренное на уровне метеостанции атмосферное давление.
Tmin - Минимальная температура - минимум температуры воздуха на высоте 2 м над землей.
Tmax - Максимальная температура - максимум температуры воздуха на высоте 2 м над землей.
R - Количество осадков - Количество выпавших осадков за период времени, мм. При наведении курсора мыши на число - период времени, за который выпало указанное количество осадков.
R24 - Количество осадков - Количество выпавших осадков за 24 часа, мм.
S - Снежный покров - Высота снежного покрова, см. При наведении курсора мыши на число - состояние снежного покрова и степень покрытия местности в баллах.